This is the latest recevied weather packets stored in our database for station/object KF5JED-13. If no packets are shown the sender has not sent any weather packets the latest 10 day(s).
| Time | Temp. | Humidity | Pressure | Rain* | Wind** | Luminosity | Snow |
|---|---|---|---|---|---|---|---|
| 1777567524 | 14.44° C | 56% | 1017.5 hPa | 0 mm | - | 805 W/m² | - |
| 1777567221 | 13.89° C | 57% | 1017.7 hPa | 0 mm | - | 812 W/m² | - |
| 1777566920 | 13.89° C | 58% | 1017.2 hPa | 0 mm | - | 650 W/m² | - |
| 1777566617 | 13.33° C | 59% | 1017.5 hPa | 0 mm | - | 712 W/m² | - |
| 1777566315 | 13.33° C | 61% | 1017.6 hPa | 0 mm | - | 772 W/m² | - |
| 1777566012 | 12.78° C | 62% | 1017.7 hPa | 0 mm | - | 667 W/m² | - |
| 1777565707 | 12.78° C | 62% | 1017.5 hPa | 0 mm | - | 588 W/m² | - |
| 1777565404 | 12.78° C | 63% | 1017.5 hPa | 0 mm | - | 760 W/m² | - |
| 1777565100 | 12.22° C | 64% | 1017.6 hPa | 0 mm | - | 518 W/m² | - |
| 1777564796 | 12.22° C | 65% | 1017.5 hPa | 0 mm | - | 461 W/m² | - |
| 1777564490 | 11.67° C | 66% | 1017.7 hPa | 0 mm | - | 369 W/m² | - |
| 1777564186 | 12.22° C | 66% | 1017.6 hPa | 0 mm | - | 337 W/m² | - |
| 1777563883 | 11.67° C | 66% | 1017.8 hPa | 0 mm | - | 342 W/m² | - |
| 1777563579 | 11.67° C | 67% | 1017.7 hPa | 0 mm | - | 360 W/m² | - |
| 1777563273 | 11.67° C | 68% | 1017.8 hPa | 0 mm | - | 360 W/m² | - |
| 1777562970 | 11.11° C | 70% | 1017.6 hPa | 0 mm | - | 381 W/m² | - |
| 1777562666 | 11.11° C | 70% | 1017.7 hPa | 0 mm | - | 329 W/m² | - |
| 1777562360 | 11.11° C | 70% | 1017.6 hPa | 0 mm | - | 258 W/m² | - |
| 1777562056 | 11.11° C | 71% | 1017.6 hPa | 0 mm | - | 360 W/m² | - |
| 1777561753 | 11.11° C | 71% | 1017.7 hPa | 0 mm | - | 363 W/m² | - |
| 1777561449 | 11.11° C | 72% | 1017.6 hPa | 0 mm | - | 282 W/m² | - |
| 1777561144 | 11.11° C | 72% | 1017.8 hPa | 0 mm | - | 248 W/m² | - |
| 1777560839 | 10.56° C | 73% | 1017.8 hPa | 0 mm | - | 313 W/m² | - |
| 1777560537 | 10.56° C | 73% | 1017.9 hPa | 0 mm | - | 202 W/m² | - |
| 1777560235 | 10.56° C | 73% | 1017.9 hPa | 0 mm | - | 340 W/m² | - |
* Rain latest hour (hover to see other rain measurements)
** Current wind speed in m/s (hover to see current wind gust speed)